M I D A S
Marine Information and Data Acquisition System
Tripno 1454 of the Zeeleeuw from 2008-04-09 07:03:28 to 2008-04-09 10:24:47
Back to CruiseResearch ActivitiesStationsMapUnderway DataData graphs

EquipmentUnitsComments
TimeDGPSUTC
LatitudeDGPSDM.mWGS84
LongitudeDGPSDM.mWGS84
SpeedMeteo Stationm/sRelative wind speed
DirectionMeteo StationdegRelative wind direction
TemperatureMeteo Stationdeg CelciusAir temperature
PressureMeteo StationPaAtmospheric pressure
HumidityMeteo Station%Relative humidity
Missing or incorrect values are displayed as -999
Metereological data collected by the RV Zeeleeuw from 2008-04-09 07:06:11 to 2008-04-09 10:35:00
Time Latitude Longitude Speed Direction Temperature Pressure Humidity
2008-04-09 07:07 51°13.685 2°55.877 1.4 82 6.3 100030 67
2008-04-09 07:08 51°13.727 2°55.768 1.9 80 6.1 100030 66
2008-04-09 07:09 51°13.791 2°55.668 1.4 78 6.1 100030 67
2008-04-09 07:10 51°13.875 2°55.615 1.5 75 6.2 100030 67
2008-04-09 07:11 51°13.945 2°55.642 1.2 73 6.2 100020 67
2008-04-09 07:12 51°13.964 2°55.644 0.1 74 6.2 100020 65
2008-04-09 07:13 51°14.004 2°55.543 2.7 279 6.2 100020 65
2008-04-09 07:14 51°14.102 2°55.431 2.9 281 6.2 100020 64
2008-04-09 07:15 51°14.214 2°55.322 3.3 282 6.1 100020 65
2008-04-09 07:16 51°14.307 2°55.176 2.8 285 6.2 100020 65
2008-04-09 07:17 51°14.392 2°54.987 3.9 280 6.1 100020 65
2008-04-09 07:18 51°14.519 2°54.803 5 280 6.2 100020 65
2008-04-09 07:19 51°14.687 2°54.75 4.9 281 6.2 100020 65
2008-04-09 07:20 51°14.858 2°54.766 4.5 282 6.3 100020 66
2008-04-09 07:21 51°15.023 2°54.778 4.3 281 6.4 100020 65
2008-04-09 07:22 51°15.188 2°54.802 4.2 285 6.5 100020 65
2008-04-09 07:23 51°15.346 2°54.871 5.2 279 6.7 100020 65
2008-04-09 07:24 51°15.489 2°54.996 4.7 280 6.8 100020 65
2008-04-09 07:25 51°15.63 2°55.124 5 280 6.9 100020 65
2008-04-09 07:26 51°15.775 2°55.241 5.4 287 7 100020 64
2008-04-09 07:27 51°15.921 2°55.355 4.8 279 7.1 100020 63
2008-04-09 07:28 51°16.067 2°55.466 5.6 285 7.1 100010 63
2008-04-09 07:29 51°16.213 2°55.576 5.2 280 7.1 100020 63
2008-04-09 07:30 51°16.355 2°55.692 4.7 286 7.1 100020 62
2008-04-09 07:31 51°16.497 2°55.805 5 279 7.1 100020 62
2008-04-09 07:32 51°16.636 2°55.927 4.4 280 7.1 100020 62
2008-04-09 07:33 51°16.772 2°56.053 4.7 286 7 100020 63
2008-04-09 07:34 51°16.909 2°56.181 5.4 286 7 100020 62
2008-04-09 07:35 51°17.043 2°56.318 5.8 281 6.8 100020 62
2008-04-09 07:36 51°17.176 2°56.467 5.7 284 6.7 100010 64
2008-04-09 07:37 51°17.308 2°56.618 5.6 280 6.5 100010 64
2008-04-09 07:38 51°17.448 2°56.751 5.3 280 6.5 100010 65
2008-04-09 07:39 51°17.588 2°56.879 5.5 285 6.5 100010 65
2008-04-09 07:40 51°17.726 2°57.008 4.6 280 6.5 100010 65
2008-04-09 07:41 51°17.814 2°57.088 2.7 348 6.6 100010 66
2008-04-09 07:42 51°17.855 2°57.129 2 354 6.6 100020 65
2008-04-09 07:43 51°17.9 2°57.162 1.9 281 6.5 100020 65
2008-04-09 07:44 51°17.959 2°57.201 2.3 285 6.4 100010 66
2008-04-09 07:45 51°18.023 2°57.279 3.2 280 6.3 100010 67
2008-04-09 07:46 51°18.113 2°57.36 4.1 286 6.3 100010 67
2008-04-09 07:47 51°18.13 2°57.463 2.2 280 6.3 100010 69
2008-04-09 07:48 51°18.107 2°57.463 1.7 282 6.4 100010 68
2008-04-09 07:49 51°18.081 2°57.437 1.8 282 6.4 100010 68
2008-04-09 07:50 51°18.056 2°57.405 1.7 280 6.5 100010 69
2008-04-09 07:51 51°18.032 2°57.369 1.6 285 6.5 100010 69
2008-04-09 07:52 51°18.01 2°57.332 1.9 284 6.6 100020 68
2008-04-09 07:53 51°17.99 2°57.293 1.4 286 6.7 100010 68
2008-04-09 07:54 51°17.97 2°57.252 1.6 283 6.7 100020 67
2008-04-09 07:55 51°17.946 2°57.226 2.7 343 6.7 100020 66
2008-04-09 07:56 51°17.951 2°57.266 2 356 6.6 100010 66
2008-04-09 07:57 51°17.972 2°57.329 2.7 282 6.5 100010 67
2008-04-09 07:58 51°17.964 2°57.394 3 280 6.4 100020 67
2008-04-09 07:59 51°17.949 2°57.471 3.2 286 6.3 100010 67
2008-04-09 08:00 51°17.931 2°57.556 3 280 6.4 100020 68
2008-04-09 08:01 51°17.931 2°57.636 2.5 349 6.4 100020 68
2008-04-09 08:02 51°17.958 2°57.7 2.9 282 6.4 100020 68
2008-04-09 08:03 51°17.99 2°57.766 2.3 279 6.3 100020 66
2008-04-09 08:04 51°18.02 2°57.834 2.5 345 6.3 100010 65
2008-04-09 08:05 51°18.051 2°57.903 2.6 347 6.3 100020 64
2008-04-09 08:06 51°18.083 2°57.971 2.8 279 6.3 100020 63
2008-04-09 08:07 51°18.115 2°58.041 2.7 281 6.3 100020 61
2008-04-09 08:08 51°18.146 2°58.108 2.3 280 6.4 100020 61
2008-04-09 08:09 51°18.176 2°58.174 2.2 281 6.4 100010 59
2008-04-09 08:10 51°18.207 2°58.24 2.2 346 6.4 100020 60
2008-04-09 08:11 51°18.237 2°58.305 2.5 346 6.5 100010 60
2008-04-09 08:12 51°18.267 2°58.368 2.5 278 6.5 100020 60
2008-04-09 08:13 51°18.298 2°58.431 2.3 284 6.5 100010 60
2008-04-09 08:14 51°18.327 2°58.494 2.2 280 6.4 100020 59
2008-04-09 08:15 51°18.351 2°58.557 2.3 281 6.5 100020 59
2008-04-09 08:16 51°18.358 2°58.621 2.4 281 6.5 100010 60
2008-04-09 08:17 51°18.306 2°58.641 2.4 286 6.6 100010 60
2008-04-09 08:18 51°18.256 2°58.622 1.8 280 6.7 100010 60
2008-04-09 08:19 51°18.219 2°58.605 1.3 334 7 100010 59
2008-04-09 08:20 51°18.191 2°58.588 1.4 286 7.1 100020 57
2008-04-09 08:21 51°18.154 2°58.576 2.5 285 7.2 100010 56
2008-04-09 08:22 51°18.092 2°58.504 2.1 305 7.2 100010 58
2008-04-09 08:23 51°18.039 2°58.353 2.6 285 7.3 100010 56
2008-04-09 08:24 51°17.973 2°58.142 4 284 7.3 100020 55
2008-04-09 08:25 51°17.891 2°57.885 5.7 279 7.3 100020 56
2008-04-09 08:26 51°17.801 2°57.602 5.7 327 7.2 100020 56
2008-04-09 08:27 51°17.691 2°57.28 5.9 327 7.1 100020 57
2008-04-09 08:28 51°17.586 2°56.964 6.8 286 7 100020 56
2008-04-09 08:29 51°17.477 2°56.635 7.3 284 7 100020 58
2008-04-09 08:30 51°17.372 2°56.316 7.2 282 6.9 100020 57
2008-04-09 08:31 51°17.24 2°56.017 7.5 328 6.9 100020 59
2008-04-09 08:32 51°17.06 2°55.795 5.9 280 6.8 100020 60
2008-04-09 08:33 51°16.89 2°55.553 6.7 279 6.9 100020 60
2008-04-09 08:34 51°16.753 2°55.262 5.5 286 6.8 100020 60
2008-04-09 08:35 51°16.679 2°54.919 6.3 283 6.9 100020 60
2008-04-09 08:36 51°16.635 2°54.562 6.3 329 6.8 100020 59
2008-04-09 08:37 51°16.692 2°54.228 5.1 331 6.8 100020 58
2008-04-09 08:38 51°16.762 2°53.9 5.9 330 6.8 100030 58
2008-04-09 08:39 51°16.813 2°53.56 6 282 6.8 100020 59
2008-04-09 08:40 51°16.865 2°53.239 5.8 330 6.8 100030 59
2008-04-09 08:41 51°16.93 2°52.943 5.7 330 6.8 100030 58
2008-04-09 08:42 51°17.072 2°52.717 4.9 333 6.8 100030 58
2008-04-09 08:43 51°17.254 2°52.624 5.2 282 6.8 100030 59
2008-04-09 08:44 51°17.444 2°52.597 6.3 333 6.9 100030 59
2008-04-09 08:45 51°17.628 2°52.575 4.1 333 6.9 100030 60
2008-04-09 08:46 51°17.692 2°52.453 2.5 305 6.9 100030 60
2008-04-09 08:47 51°17.604 2°52.307 5.3 280 7 100020 59
2008-04-09 08:48 51°17.463 2°52.163 3.8 279 7 100030 59
2008-04-09 08:49 51°17.353 2°52.108 3 330 7.1 100030 59
2008-04-09 08:50 51°17.281 2°52.107 1.9 303 7.3 100030 59
2008-04-09 08:51 51°17.214 2°52.13 2.7 329 7.5 100020 58
2008-04-09 08:52 51°17.128 2°52.209 3.2 332 7.5 100020 57
2008-04-09 08:53 51°17.075 2°52.33 3.5 280 7.5 100020 57
2008-04-09 08:54 51°17.051 2°52.415 1.8 279 7.6 100020 57
2008-04-09 08:55 51°17.042 2°52.471 1.8 282 7.7 100020 56
2008-04-09 08:56 51°17.108 2°52.503 4.4 286 7.6 100020 55
2008-04-09 08:57 51°17.261 2°52.498 5.6 281 7.4 100020 56
2008-04-09 08:58 51°17.446 2°52.491 6.6 281 7.2 100020 57
2008-04-09 08:59 51°17.633 2°52.494 6.9 281 7.2 100020 58
2008-04-09 09:00 51°17.817 2°52.514 6.5 280 7.1 100010 58
2008-04-09 09:01 51°17.994 2°52.598 6.3 280 7.1 100020 59
2008-04-09 09:02 51°18.152 2°52.737 5.6 283 7.1 100010 59
2008-04-09 09:03 51°18.19 2°53.009 7 284 7.1 100010 59
2008-04-09 09:04 51°18.24 2°53.278 7 280 7 100010 59
2008-04-09 09:05 51°18.285 2°53.556 6.2 281 7.1 100020 60
2008-04-09 09:06 51°18.343 2°53.824 5.9 288 7 100020 60
2008-04-09 09:07 51°18.406 2°54.085 6.7 286 7 100020 60
2008-04-09 09:08 51°18.467 2°54.349 6.6 285 7.1 100020 60
2008-04-09 09:09 51°18.495 2°54.626 6.4 281 7.1 100010 60
2008-04-09 09:10 51°18.453 2°54.903 7.1 283 7.1 100020 58
2008-04-09 09:11 51°18.368 2°55.164 5.9 280 7.1 100020 57
2008-04-09 09:12 51°18.303 2°55.276 1.6 278 7.1 100020 56
2008-04-09 09:13 51°18.293 2°55.241 -999 282 7.3 100020 57
2008-04-09 09:14 51°18.284 2°55.204 0.5 286 7.6 100020 56
2008-04-09 09:15 51°18.273 2°55.167 0.8 278 7.8 100020 54
2008-04-09 09:16 51°18.259 2°55.13 0.6 283 7.9 100020 54
2008-04-09 09:17 51°18.243 2°55.093 0.8 340 7.9 100020 54
2008-04-09 09:18 51°18.227 2°55.057 0.7 278 7.8 100010 54
2008-04-09 09:19 51°18.207 2°55.021 0.6 280 7.8 100010 54
2008-04-09 09:20 51°18.187 2°54.987 0.7 279 7.8 100010 54
2008-04-09 09:21 51°18.166 2°54.953 0.5 353 7.8 100010 54
2008-04-09 09:22 51°18.144 2°54.921 0.5 351 7.8 100010 53
2008-04-09 09:23 51°18.108 2°54.911 1.5 279 7.8 100020 52
2008-04-09 09:24 51°18.095 2°54.963 1.5 279 7.7 100010 53
2008-04-09 09:25 51°18.141 2°54.998 2.1 280 7.7 100010 52
2008-04-09 09:26 51°18.162 2°55.058 1.6 282 7.8 100010 51
2008-04-09 09:27 51°18.176 2°55.131 2.2 288 7.8 100010 52
2008-04-09 09:28 51°18.195 2°55.201 1.8 285 7.9 100010 51
2008-04-09 09:29 51°18.212 2°55.275 2.2 287 7.9 100020 52
2008-04-09 09:30 51°18.232 2°55.346 2.1 279 8 100020 51
2008-04-09 09:31 51°18.244 2°55.422 2.1 281 7.9 100010 51
2008-04-09 09:32 51°18.258 2°55.495 1.8 280 7.9 100010 51
2008-04-09 09:33 51°18.274 2°55.571 2.2 287 8.1 100010 51
2008-04-09 09:34 51°18.29 2°55.644 2.1 280 8.2 100010 50
2008-04-09 09:35 51°18.307 2°55.719 1.7 285 8.3 100010 50
2008-04-09 09:36 51°18.324 2°55.797 2.3 278 8.4 100010 50
2008-04-09 09:37 51°18.344 2°55.87 1.9 278 8.5 100010 50
2008-04-09 09:38 51°18.385 2°55.906 2.1 280 8.4 100010 50
2008-04-09 09:39 51°18.438 2°55.916 3 279 8.3 100010 50
2008-04-09 09:40 51°18.494 2°55.897 2.2 304 8.3 100000 51
2008-04-09 09:41 51°18.541 2°55.875 2 284 8.3 100000 51
2008-04-09 09:42 51°18.587 2°55.85 2 278 8.2 100000 51
2008-04-09 09:43 51°18.63 2°55.826 2.1 285 8.2 100000 52
2008-04-09 09:44 51°18.672 2°55.795 2.2 286 8.2 100000 52
2008-04-09 09:45 51°18.711 2°55.749 2.5 280 8.1 100000 52
2008-04-09 09:46 51°18.742 2°55.739 2.1 288 8.2 100000 52
2008-04-09 09:47 51°18.749 2°55.742 1 282 8.2 100000 52
2008-04-09 09:48 51°18.743 2°55.733 0.7 279 8.3 100000 52
2008-04-09 09:49 51°18.732 2°55.714 0.7 279 8.5 99990 53
2008-04-09 09:50 51°18.718 2°55.69 0.7 284 8.8 100000 52
2008-04-09 09:51 51°18.701 2°55.659 0.8 277 9.1 100000 51
2008-04-09 09:52 51°18.684 2°55.625 0.6 277 9.3 100000 51
2008-04-09 09:53 51°18.664 2°55.59 0.3 282 9.5 100000 50
2008-04-09 09:54 51°18.648 2°55.561 0.8 287 9.6 100000 49
2008-04-09 09:55 51°18.665 2°55.516 2.2 283 9.6 100000 48
2008-04-09 09:56 51°18.648 2°55.363 3.7 281 9.4 100000 49
2008-04-09 09:57 51°18.577 2°55.056 6.2 279 8.9 99990 49
2008-04-09 09:58 51°18.501 2°54.695 7.3 280 8.4 99990 50
2008-04-09 09:59 51°18.419 2°54.351 7.3 284 8 99990 51
2008-04-09 10:00 51°18.339 2°53.994 7.3 285 7.8 99990 52
2008-04-09 10:01 51°18.261 2°53.651 7.1 284 7.7 99990 53
2008-04-09 10:02 51°18.172 2°53.297 6.1 286 7.6 99990 54
2008-04-09 10:03 51°18.095 2°52.95 7.3 285 7.5 99990 55
2008-04-09 10:04 51°18.004 2°52.608 7.4 280 7.4 99980 55
2008-04-09 10:05 51°17.814 2°52.393 5.7 281 7.4 99990 55
2008-04-09 10:06 51°17.594 2°52.338 5.6 282 7.4 99990 55
2008-04-09 10:07 51°17.367 2°52.365 6.1 278 7.4 99980 56
2008-04-09 10:08 51°17.157 2°52.435 5.9 281 7.4 99980 55
2008-04-09 10:09 51°16.959 2°52.56 6 279 7.4 99980 56
2008-04-09 10:10 51°16.768 2°52.718 6.1 279 7.5 99980 55
2008-04-09 10:11 51°16.586 2°52.88 4.8 285 7.6 99970 54
2008-04-09 10:12 51°16.402 2°53.056 5.5 280 7.7 99970 54
2008-04-09 10:13 51°16.219 2°53.207 4.9 279 7.7 99970 54
2008-04-09 10:14 51°16.036 2°53.355 5.3 280 7.8 99970 54
2008-04-09 10:15 51°15.857 2°53.509 5.1 281 7.9 99970 53
2008-04-09 10:16 51°15.667 2°53.66 4.1 283 7.9 99970 53
2008-04-09 10:17 51°15.486 2°53.816 4.8 282 7.9 99970 53
2008-04-09 10:18 51°15.32 2°53.995 4.8 284 8 99960 53
2008-04-09 10:19 51°15.15 2°54.17 4.7 285 8 99960 52
2008-04-09 10:20 51°14.979 2°54.352 4.6 284 8.1 99960 52
2008-04-09 10:21 51°14.807 2°54.537 4 284 8.2 99960 52
2008-04-09 10:22 51°14.653 2°54.708 2.8 281 8.3 99960 52
2008-04-09 10:23 51°14.526 2°54.863 2.8 277 8.4 99960 51
2008-04-09 10:24 51°14.405 2°55.014 3.5 279 8.4 99960 51
2008-04-09 10:25 51°14.297 2°55.197 3.4 279 8.3 99950 51
2008-04-09 10:26 51°14.175 2°55.372 2.3 287 8.3 99960 52
2008-04-09 10:27 51°14.051 2°55.472 0.4 277 8.3 99950 53
2008-04-09 10:28 51°13.962 2°55.533 1.1 78 8.5 99950 54
2008-04-09 10:29 51°13.882 2°55.59 0.4 83 8.6 99950 53
2008-04-09 10:30 51°13.802 2°55.657 0.6 281 8.7 99950 53
2008-04-09 10:31 51°13.739 2°55.747 1 278 9 99950 51
2008-04-09 10:32 51°13.689 2°55.849 2.2 288 9.2 99950 50
2008-04-09 10:33 51°13.666 2°55.93 1.3 287 9.4 99940 48
2008-04-09 10:34 51°13.662 2°55.953 2.1 82 9.5 99950 47